Regional Weather Roundup
Issued by NWS Green Bay, WI

Home | Current Version | Previous Version | Text Only | Print | Product List | Glossary On
Versions: 1 2 3 4 5 6 7 8 9 10 11 12 13 14 15 16 17 18 19 20 21 22 23 24 25 26 27 28 29 30 31 32 33 34 35 36 37 38 39 40 41 42 43 44 45 46 47 48 49 50
000
ASUS43 KGRB 211100
RWRGRB

NORTH-CENTRAL AND NORTHEAST WISCONSIN REGIONAL WEATHER ROUNDUP
NATIONAL WEATHER SERVICE GREEN BAY WI
500 AM CST TUE NOV 21 2017

WIZ005-009-010>012-018-019-211200-
NORTH CENTRAL WISCONSIN

CITY           SKY/WX    TMP DP  RH WIND       PRES   REMARKS
IRONWOOD       FLURRIES  29  20  69 W22G33    29.48R
MANITOWISH WTR NOT AVBL
ARBOR VITAE    NOT AVBL
EAGLE RIVER    PTCLDY    32  19  57 W14G28    29.41R
LAND O LAKES   NOT AVBL
RHINELANDER    CLEAR     33  21  61 W21G32    29.44R
PHILLIPS       CLOUDY    29  19  64 W12G26    29.49R
ANTIGO         NOT AVBL
TOMAHAWK       NOT AVBL
MERRILL        CLEAR     34  20  56 W9G25     29.49R
$$

WIZ013-073-211200-
NORTHEAST WISCONSIN

CITY           SKY/WX    TMP DP  RH WIND       PRES   REMARKS
IRON MOUNTAIN  PTCLDY    37  23  56 W13G23    29.37R
MARINETTE      CLEAR     42  27  55 W9G20     29.43R
$$

WIZ017-030-035>037-045-211200-
CENTRAL WISCONSIN

CITY           SKY/WX    TMP DP  RH WIND       PRES   REMARKS
MEDFORD        NOT AVBL
WAUSAU         CLEAR     35  21  56 NW24G38   29.48R
MOSINEE        NOT AVBL
MARSHFIELD     CLEAR     35  22  58 W15G28    29.51R
WISC RAPIDS    CLEAR     37  23  56 W7        29.54R
STEVENS POINT  NOT AVBL
WAUPACA        NOT AVBL
SHAWANO        CLEAR     42  26  52 W12G20    29.46R
CLINTONVILLE   NOT AVBL
WAUTOMA        PTCLDY    41  24  51 W14       29.53R
$$

WIZ038-039-048-051-211200-
FOX VALLEY

CITY           SKY/WX    TMP DP  RH WIND       PRES   REMARKS
NWS GREEN BAY  CLEAR     42  29  59 W20G31    29.47R
APPLETON       NOT AVBL
OSHKOSH        CLEAR     44  28  53 W12       29.50R
FOND DU LAC    CLEAR     41  29  62 SW10      29.51R
$$

WIZ022-050-052-211200-
EAST CENTRAL WISCONSIN

CITY           SKY/WX    TMP DP  RH WIND       PRES   REMARKS
EPHRAIM        NOT AVBL
WASHINGTON ISL NOT AVBL
STURGEON BAY   CLEAR     43  29  57 SW16G23   29.44R
MANITOWOC      CLOUDY    46  29  51 SW12      29.49R
SHEBOYGAN      PTCLDY    43  32  65 SW10      29.50S
$$

LMZ563-521-522-541>543-211200-
LAKESHORE

STATION/POSITION TIME  TEMP    WIND        PRES    VSBY  WAVE
                       AIR SEA DIR/SP/G                  HT/PER
                 (UTC) (F)     (DEG/KT/KT) (MB)    (MI)  (FT/S)
SHEBOYGAN LKSHOR 1000   46     230/ 13/ 15  999.2R
KEWAUNEE LKSHORE 1030   45     230/ 11/ 17  996.6R
NORTHPORT PIER   1040   45     240/  6/ 17  995.3R
N MID LAKE BUOY  0950   48 48  230/ 23/ 29  994.4F        10/ 8
MENOMINEE LKSHOR 1030   43     230/ 13/ 21  995.8R
$$



USA.gov is the U.S. government's official web portal to all federal, state and local government web resources and services.